Precipitable_Water
1.67 1.71 1.76 1.75 1.66 1.71 1.59 1.58 1.67 1.72 1.70 1.76 1.76 1.84 1.80 1.86 1.80 1.69 1.71 1.76 1.78 1.83 1.91 1.93 1.90 1.88 1.81 1.87 1.95 2.00 2.04 2.09 2.07 2.07 2.09 2.15 2.14 2.02 2.03 2.02 2.13 2.06 1.95 1.93 1.91 1.94 1.99 2.03 2.02 1.98 1.95 1.97 1.94 1.90 1.89 1.87 1.84 1.77 1.68 1.59 1.53 1.54 1.56 1.57 1.58 1.63 1.67 1.68 1.70 1.67 1.66 1.69 1.70 1.69 1.65 1.61 1.58 1.55 1.54 1.52 1.48 1.48 1.50 1.50 1.49
1.73 1.77 1.70 1.63 1.67 1.63 1.64 1.60 1.72 1.72 1.72 1.70 1.77 1.77 1.72 1.80 1.80 1.81 1.72 1.76 1.80 1.84 1.86 1.82 1.80 1.86 1.87 1.90 1.97 2.03 2.08 2.04 2.06 2.10 2.11 2.14 2.13 2.15 2.12 2.13 2.05 2.07 2.03 1.92 1.93 1.92 1.93 1.96 1.97 1.98 1.96 1.95 1.95 1.93 1.90 1.89 1.89 1.86 1.78 1.68 1.61 1.58 1.60 1.61 1.61 1.63 1.64 1.67 1.71 1.69 1.64 1.64 1.68 1.71 1.72 1.69 1.64 1.60 1.57 1.55 1.52 1.51 1.51 1.51 1.53
1.78 1.71 1.61 1.64 1.45 1.38 1.42 1.46 1.45 1.47 1.48 1.64 1.79 1.72 1.74 1.86 1.85 1.79 1.77 1.81 1.83 1.83 1.86 1.82 1.78 1.89 1.92 1.87 1.81 1.99 2.06 2.07 2.05 2.08 2.04 2.09 2.08 2.09 2.10 2.11 2.15 2.14 2.08 2.00 1.93 1.93 1.95 1.94 1.93 1.94 1.96 1.98 1.97 1.94 1.90 1.87 1.90 1.90 1.88 1.76 1.69 1.64 1.63 1.63 1.63 1.62 1.63 1.64 1.66 1.65 1.63 1.61 1.62 1.64 1.68 1.69 1.66 1.63 1.62 1.60 1.60 1.58 1.54 1.53 1.53
1.70 1.73 1.57 1.44 1.42 1.34 1.40 1.37 1.39 1.50 1.60 1.57 1.64 1.75 1.80 1.73 1.83 1.82 1.84 1.88 1.79 1.86 1.87 1.79 1.78 1.86 1.86 1.83 1.84 1.89 1.98 2.03 2.00 1.98 1.99 2.02 2.02 2.04 2.02 2.07 2.08 2.11 2.12 2.09 2.01 1.95 1.94 1.96 1.97 1.95 1.96 2.00 2.02 2.02 1.98 1.95 1.94 1.90 1.89 1.85 1.80 1.81 1.68 1.65 1.64 1.63 1.62 1.62 1.63 1.63 1.63 1.61 1.60 1.60 1.63 1.66 1.66 1.66 1.65 1.64 1.63 1.64 1.61 1.58 1.58
1.70 1.56 1.58 1.32 1.36 1.35 1.30 1.30 1.31 1.43 1.52 1.55 1.68 1.68 1.61 1.72 1.81 1.80 1.76 1.80 1.87 1.80 1.86 1.83 1.79 1.82 1.88 1.92 1.87 1.85 1.95 2.01 1.98 1.99 1.96 1.96 2.01 1.99 2.01 2.01 2.02 2.00 2.08 2.10 2.04 1.98 1.95 1.95 2.01 2.01 1.97 1.95 1.98 2.03 2.02 1.99 1.98 1.94 1.95 1.94 1.87 1.85 1.85 1.73 1.69 1.66 1.63 1.63 1.65 1.66 1.66 1.64 1.60 1.58 1.59 1.63 1.64 1.64 1.64 1.65 1.66 1.66 1.65 1.64 1.62
1.77 1.53 1.56 1.35 1.36 1.44 1.34 1.37 1.33 1.47 1.53 1.60 1.51 1.58 1.69 1.77 1.84 1.76 1.80 1.78 1.68 1.68 1.79 1.81 1.77 1.89 1.88 1.87 1.87 1.91 1.95 2.04 2.04 2.02 1.98 1.91 1.94 1.90 1.90 1.94 2.02 2.03 2.06 2.05 1.99 1.95 1.95 2.03 2.05 2.00 1.98 1.96 1.94 1.96 1.97 1.97 1.98 1.97 1.96 2.00 1.96 1.92 1.90 1.92 1.82 1.74 1.70 1.67 1.68 1.67 1.68 1.68 1.63 1.61 1.56 1.54 1.56 1.57 1.58 1.59 1.59 1.60 1.60 1.61 1.62
1.70 1.49 1.44 1.44 1.34 1.37 1.31 1.35 1.41 1.48 1.45 1.48 1.50 1.56 1.65 1.71 1.70 1.68 1.64 1.73 1.55 1.70 1.75 1.77 1.82 1.78 1.78 1.83 1.90 1.94 1.95 1.98 2.03 1.98 1.92 1.84 1.85 1.89 1.92 1.93 1.96 1.97 2.00 1.95 1.91 1.91 1.94 2.10 2.01 1.99 1.92 1.93 1.91 1.90 1.92 1.96 1.99 1.96 1.95 2.02 1.95 1.94 1.93 1.94 1.93 1.82 1.76 1.72 1.69 1.67 1.68 1.68 1.68 1.68 1.60 1.51 1.47 1.47 1.49 1.52 1.54 1.55 1.56 1.57 1.59
1.57 1.54 1.34 1.39 1.46 1.38 1.36 1.32 1.49 1.52 1.44 1.43 1.48 1.45 1.51 1.67 1.71 1.59 1.54 1.59 1.71 1.70 1.79 1.79 1.87 1.75 1.81 1.89 1.95 1.96 1.84 1.92 1.95 1.89 1.90 1.88 1.93 1.93 1.92 1.90 1.94 2.01 2.00 1.90 1.87 1.92 1.95 2.02 2.04 1.89 1.89 1.95 1.94 1.88 1.87 1.92 1.95 1.96 1.99 1.98 2.01 2.05 1.96 1.93 2.00 1.93 1.80 1.75 1.71 1.67 1.67 1.70 1.71 1.71 1.69 1.60 1.50 1.45 1.44 1.46 1.48 1.49 1.49 1.54 1.59
1.51 1.48 1.44 1.44 1.36 1.40 1.52 1.49 1.53 1.50 1.37 1.43 1.51 1.63 1.62 1.61 1.65 1.59 1.53 1.59 1.53 1.68 1.70 1.81 1.86 1.80 1.90 1.98 1.93 1.89 1.94 1.92 2.00 1.97 1.97 1.87 1.94 1.89 1.90 1.97 2.01 2.04 2.04 1.96 1.92 1.93 2.00 2.02 2.01 2.00 1.95 1.92 1.87 1.85 1.85 1.84 1.98 1.99 1.97 1.93 1.97 1.98 1.95 1.96 1.97 1.94 1.89 1.82 1.76 1.71 1.70 1.72 1.74 1.73 1.73 1.71 1.64 1.56 1.49 1.48 1.50 1.51 1.51 1.53 1.55
1.48 1.50 1.41 1.50 1.41 1.39 1.49 1.65 1.62 1.60 1.47 1.43 1.48 1.57 1.68 1.62 1.55 1.57 1.53 1.47 1.44 1.59 1.89 1.77 1.85 1.84 1.96 1.95 1.96 1.97 2.02 2.02 1.93 1.85 1.87 1.83 1.91 1.95 1.98 2.02 2.07 2.09 2.09 2.07 2.02 1.99 2.04 2.05 1.99 1.97 1.93 1.88 1.84 1.84 1.84 1.84 1.89 1.91 1.95 1.92 1.95 1.95 1.95 1.96 1.95 1.93 1.92 1.88 1.81 1.74 1.71 1.72 1.73 1.74 1.73 1.74 1.75 1.69 1.62 1.60 1.61 1.63 1.64 1.62 1.58
1.49 1.47 1.44 1.46 1.46 1.46 1.48 1.60 1.72 1.67 1.57 1.54 1.49 1.53 1.58 1.62 1.59 1.52 1.53 1.53 1.44 1.60 1.83 1.90 1.88 1.90 1.99 1.86 1.95 2.06 2.04 2.14 2.00 1.85 1.92 1.98 2.01 2.10 2.10 2.05 2.09 2.08 2.05 2.06 2.05 2.04 2.01 2.02 2.01 1.91 1.85 1.84 1.84 1.83 1.83 1.82 1.82 1.84 1.88 1.88 1.87 1.95 1.93 1.91 1.96 1.99 1.92 1.87 1.83 1.81 1.77 1.75 1.75 1.75 1.76 1.76 1.77 1.76 1.71 1.69 1.70 1.72 1.74 1.72 1.65
1.54 1.53 1.47 1.46 1.45 1.45 1.49 1.53 1.58 1.57 1.44 1.43 1.51 1.58 1.56 1.63 1.62 1.50 1.42 1.37 1.55 1.75 1.86 1.88 1.90 1.96 1.86 1.83 1.90 2.00 2.03 2.10 2.05 1.97 1.90 1.95 2.06 2.08 2.05 2.09 2.09 2.08 2.08 2.04 2.03 2.08 2.03 2.01 1.98 1.95 1.90 1.83 1.81 1.82 1.82 1.81 1.82 1.84 1.87 1.88 1.91 1.91 1.92 1.93 1.97 1.97 1.92 1.88 1.91 1.94 1.87 1.81 1.77 1.76 1.79 1.80 1.79 1.78 1.75 1.74 1.74 1.75 1.76 1.77 1.73
1.62 1.58 1.50 1.48 1.51 1.52 1.55 1.56 1.59 1.59 1.56 1.57 1.61 1.63 1.67 1.64 1.55 1.45 1.40 1.47 1.59 1.75 1.82 1.80 1.83 1.70 1.82 1.79 1.84 1.97 2.01 2.06 2.05 2.09 1.98 2.01 2.06 2.04 2.06 2.06 2.08 2.05 2.04 2.00 1.95 1.99 2.02 2.01 1.98 1.97 1.96 1.89 1.83 1.79 1.78 1.78 1.78 1.82 1.85 1.88 1.91 1.96 1.96 1.97 1.95 1.95 1.95 1.96 1.96 1.99 1.93 1.88 1.84 1.80 1.80 1.83 1.85 1.82 1.80 1.80 1.79 1.77 1.78 1.79 1.78
1.68 1.63 1.60 1.54 1.48 1.51 1.52 1.55 1.55 1.56 1.58 1.60 1.61 1.62 1.57 1.48 1.41 1.35 1.41 1.46 1.56 1.68 1.74 1.84 1.66 1.56 1.52 1.56 1.70 1.86 1.93 1.92 1.95 1.98 1.93 2.00 2.03 2.01 2.01 1.98 1.99 1.96 1.98 2.01 1.96 1.93 1.97 2.03 2.02 2.00 1.99 1.96 1.87 1.80 1.78 1.79 1.77 1.79 1.84 1.87 1.89 1.91 1.92 1.93 1.93 1.95 1.96 1.97 1.97 1.97 1.93 1.89 1.87 1.86 1.85 1.87 1.89 1.87 1.84 1.84 1.82 1.77 1.77 1.79 1.80
1.64 1.63 1.61 1.58 1.55 1.50 1.50 1.51 1.48 1.52 1.51 1.51 1.47 1.45 1.44 1.39 1.38 1.34 1.36 1.53 1.49 1.64 1.81 1.77 1.53 1.63 1.59 1.48 1.42 1.54 1.66 1.75 1.89 1.92 1.90 1.93 1.98 1.97 1.97 1.95 1.95 1.97 1.99 2.02 1.97 1.95 1.95 2.00 2.04 2.03 1.95 1.91 1.96 1.90 1.85 1.77 1.71 1.64 1.67 1.74 1.81 1.88 1.92 1.95 1.95 1.95 1.94 1.93 1.93 1.92 1.92 1.92 1.91 1.90 1.90 1.90 1.90 1.89 1.88 1.88 1.84 1.77 1.74 1.77 1.80
1.67 1.61 1.58 1.57 1.53 1.51 1.51 1.50 1.56 1.57 1.53 1.52 1.50 1.44 1.41 1.31 1.23 1.30 1.39 1.37 1.53 1.56 1.80 1.83 1.66 1.55 1.34 1.31 1.39 1.44 1.31 1.44 1.67 1.81 1.92 1.95 1.97 1.93 1.98 1.97 1.93 1.92 1.96 1.95 1.99 1.98 1.99 2.04 2.04 2.05 1.98 1.92 1.95 1.94 1.88 1.83 1.77 1.70 1.61 1.60 1.64 1.69 1.78 1.84 1.90 1.93 1.94 1.94 1.92 1.91 1.90 1.91 1.93 1.95 1.94 1.92 1.92 1.92 1.92 1.91 1.86 1.80 1.77 1.79 1.82
1.74 1.72 1.64 1.59 1.58 1.55 1.53 1.52 1.55 1.59 1.59 1.60 1.57 1.51 1.52 1.48 1.45 1.44 1.49 1.48 1.41 1.44 1.55 1.72 1.76 1.67 1.42 1.29 1.31 1.26 1.23 1.41 1.65 1.68 1.87 1.83 1.88 1.88 1.87 1.88 1.91 1.98 1.95 1.96 2.01 2.01 2.02 2.03 2.06 2.09 2.05 1.92 1.85 1.88 1.87 1.87 1.83 1.71 1.62 1.54 1.51 1.54 1.61 1.75 1.82 1.87 1.91 1.93 1.92 1.90 1.89 1.91 1.95 1.96 1.95 1.95 1.94 1.94 1.94 1.90 1.87 1.85 1.82 1.83 1.83
1.72 1.72 1.73 1.73 1.69 1.67 1.65 1.63 1.63 1.62 1.64 1.67 1.68 1.65 1.63 1.62 1.58 1.47 1.47 1.59 1.57 1.55 1.52 1.66 1.79 1.71 1.69 1.60 1.38 1.20 1.25 1.48 1.53 1.40 1.83 1.91 1.99 1.95 1.83 1.85 1.85 1.87 1.91 1.88 1.89 1.94 2.03 2.00 1.99 2.01 2.04 1.94 1.85 1.81 1.82 1.75 1.72 1.62 1.52 1.42 1.43 1.38 1.41 1.55 1.71 1.83 1.88 1.89 1.90 1.87 1.90 1.92 1.94 1.95 1.95 1.94 1.93 1.94 1.94 1.93 1.90 1.89 1.88 1.87 1.87
1.77 1.71 1.70 1.77 1.79 1.79 1.77 1.73 1.67 1.67 1.71 1.70 1.66 1.66 1.69 1.71 1.69 1.66 1.67 1.71 1.68 1.51 1.48 1.50 1.64 1.71 1.73 1.76 1.68 1.64 1.64 1.46 1.43 1.57 1.45 1.73 1.89 1.92 1.94 1.89 1.80 1.86 1.86 1.85 1.86 1.86 1.96 2.00 1.95 2.04 2.04 1.99 1.89 1.83 1.78 1.70 1.61 1.56 1.42 1.30 1.27 1.29 1.32 1.36 1.49 1.64 1.77 1.79 1.80 1.84 1.91 1.94 1.95 1.97 1.97 1.96 1.96 1.96 1.95 1.93 1.91 1.89 1.89 1.89 1.88
1.88 1.83 1.73 1.73 1.78 1.81 1.86 1.78 1.73 1.69 1.70 1.69 1.66 1.73 1.74 1.75 1.75 1.81 1.77 1.75 1.71 1.59 1.50 1.50 1.43 1.55 1.61 1.66 1.74 1.82 1.79 1.72 1.66 1.57 1.55 1.43 1.60 1.92 1.94 1.87 1.81 1.85 1.87 1.84 1.86 1.84 1.90 1.93 1.88 1.94 2.08 2.07 1.99 1.94 1.87 1.76 1.51 1.42 1.34 1.24 1.19 1.22 1.26 1.31 1.38 1.50 1.64 1.71 1.75 1.78 1.82 1.83 1.83 1.83 1.84 1.86 1.89 1.92 1.92 1.93 1.91 1.89 1.89 1.89 1.87
1.84 1.83 1.82 1.77 1.75 1.73 1.77 1.78 1.76 1.72 1.70 1.70 1.75 1.70 1.72 1.78 1.77 1.83 1.79 1.73 1.70 1.62 1.53 1.47 1.46 1.48 1.58 1.63 1.69 1.75 1.77 1.87 1.82 1.80 1.58 1.46 1.48 1.59 1.71 1.79 1.76 1.77 1.84 1.90 2.03 1.99 1.97 1.96 1.88 1.91 2.07 2.04 2.03 1.97 1.92 1.81 1.57 1.40 1.08 1.00 1.12 1.23 1.22 1.23 1.31 1.40 1.54 1.63 1.70 1.74 1.74 1.72 1.73 1.75 1.79 1.83 1.87 1.89 1.89 1.89 1.88 1.87 1.86 1.85 1.85
1.85 1.85 1.85 1.84 1.85 1.79 1.73 1.73 1.73 1.72 1.71 1.69 1.72 1.75 1.78 1.77 1.80 1.82 1.81 1.75 1.80 1.77 1.69 1.67 1.64 1.59 1.59 1.71 1.63 1.68 1.72 1.74 1.76 1.73 1.69 1.64 1.45 1.51 1.63 1.56 1.50 1.61 1.77 1.82 1.91 1.94 1.92 2.03 1.99 2.01 2.06 2.06 2.05 1.99 1.95 1.88 1.65 1.40 1.06 1.02 1.16 1.20 1.22 1.21 1.27 1.35 1.45 1.57 1.69 1.73 1.72 1.71 1.74 1.77 1.79 1.80 1.81 1.82 1.81 1.81 1.82 1.82 1.81 1.80 1.79
1.84 1.87 1.98 1.90 1.84 1.81 1.78 1.78 1.83 1.85 1.82 1.78 1.73 1.74 1.80 1.86 1.89 1.87 1.85 1.77 1.74 1.76 1.71 1.71 1.68 1.64 1.64 1.64 1.59 1.53 1.64 1.72 1.61 1.67 1.52 1.53 1.52 1.60 1.63 1.63 1.57 1.59 1.73 1.84 1.90 1.92 2.01 2.02 2.04 2.05 2.07 2.09 2.06 2.04 1.99 1.86 1.71 1.60 1.13 1.03 1.11 1.19 1.20 1.22 1.27 1.33 1.40 1.51 1.65 1.70 1.71 1.73 1.73 1.72 1.73 1.75 1.74 1.74 1.73 1.73 1.74 1.75 1.75 1.75 1.75
1.79 1.82 1.87 1.93 1.97 1.89 1.87 1.86 1.87 1.92 1.92 1.87 1.80 1.82 1.85 1.85 1.88 1.87 1.81 1.80 1.84 1.82 1.77 1.67 1.71 1.72 1.68 1.59 1.57 1.67 1.81 1.77 1.82 1.83 1.67 1.56 1.53 1.53 1.63 1.69 1.67 1.65 1.75 1.89 2.05 2.00 1.98 1.98 1.98 2.00 2.06 2.05 2.07 2.08 2.05 1.86 1.76 1.62 1.46 1.24 1.13 1.15 1.17 1.20 1.25 1.32 1.39 1.50 1.64 1.69 1.71 1.71 1.71 1.71 1.69 1.68 1.68 1.68 1.69 1.70 1.69 1.67 1.66 1.65 1.66
1.76 1.79 1.83 1.90 1.94 1.93 1.91 1.88 1.86 1.91 1.93 1.87 1.86 1.90 1.88 1.90 1.89 1.87 1.89 1.84 1.84 1.87 1.83 1.78 1.71 1.60 1.60 1.68 1.68 1.68 1.80 1.93 1.99 1.91 1.91 1.81 1.65 1.59 1.55 1.58 1.56 1.67 1.81 1.88 1.81 1.93 2.01 1.97 2.00 1.96 1.98 2.02 2.03 2.04 2.03 1.93 1.81 1.75 1.64 1.53 1.38 1.27 1.23 1.21 1.26 1.33 1.39 1.51 1.62 1.69 1.69 1.67 1.69 1.71 1.71 1.68 1.67 1.67 1.67 1.68 1.67 1.66 1.65 1.64 1.64
1.83 1.78 1.85 1.88 1.94 2.00 2.01 1.99 1.98 1.95 1.97 1.97 1.94 1.91 1.92 1.87 1.86 1.84 1.84 1.88 1.91 1.88 1.86 1.84 1.80 1.78 1.75 1.64 1.59 1.60 1.64 1.73 1.87 1.91 1.84 1.86 1.66 1.51 1.41 1.39 1.56 1.60 1.83 1.85 1.87 1.80 1.86 1.96 2.02 2.02 1.96 1.99 2.03 2.04 2.08 2.00 1.86 1.84 1.72 1.64 1.58 1.47 1.38 1.34 1.36 1.39 1.46 1.56 1.65 1.68 1.67 1.67 1.67 1.68 1.68 1.69 1.69 1.68 1.70 1.71 1.70 1.68 1.66 1.65 1.63
1.81 1.86 1.92 1.90 1.91 1.97 1.99 2.00 2.04 1.99 1.95 1.95 1.95 1.90 1.91 1.87 1.84 1.85 1.87 1.90 1.90 1.90 1.87 1.83 1.82 1.82 1.79 1.70 1.65 1.57 1.57 1.61 1.76 1.80 1.76 1.80 1.76 1.62 1.46 1.18 1.28 1.47 1.44 1.60 1.78 1.76 1.72 1.89 1.97 1.97 2.03 2.00 2.00 2.04 2.08 2.02 1.90 1.88 1.84 1.72 1.64 1.59 1.52 1.45 1.42 1.45 1.48 1.52 1.57 1.63 1.66 1.68 1.68 1.67 1.69 1.71 1.71 1.71 1.71 1.73 1.73 1.72 1.74 1.74 1.72
1.87 1.91 1.93 1.91 1.94 1.96 2.01 1.99 2.01 2.04 2.05 2.04 2.02 1.98 1.96 1.88 1.81 1.79 1.77 1.85 1.81 1.83 1.83 1.88 1.85 1.87 1.92 1.91 1.79 1.68 1.60 1.54 1.55 1.65 1.75 1.78 1.79 1.73 1.55 1.31 1.17 1.15 1.25 1.30 1.57 1.69 1.87 1.81 1.91 1.97 2.03 2.05 2.03 2.02 2.02 1.98 1.87 1.92 1.92 1.83 1.69 1.64 1.60 1.54 1.48 1.45 1.43 1.44 1.49 1.57 1.61 1.64 1.65 1.67 1.69 1.71 1.73 1.74 1.75 1.75 1.74 1.74 1.76 1.76 1.76
1.88 1.93 1.93 1.93 1.94 1.93 1.96 2.00 2.02 2.05 2.09 2.07 2.04 1.98 1.97 1.92 1.83 1.79 1.76 1.83 1.89 1.88 1.90 1.88 1.87 1.91 1.94 1.82 1.74 1.72 1.72 1.65 1.59 1.57 1.65 1.71 1.71 1.67 1.57 1.35 1.33 1.15 1.02 1.12 1.31 1.43 1.71 1.89 1.67 1.80 1.97 2.00 2.00 2.07 2.00 1.93 1.81 1.89 1.93 1.89 1.76 1.69 1.66 1.63 1.61 1.53 1.47 1.49 1.48 1.49 1.52 1.58 1.61 1.65 1.68 1.70 1.71 1.70 1.70 1.69 1.69 1.71 1.70 1.70 1.69
1.98 2.00 2.01 1.94 1.94 1.95 2.01 2.07 2.02 2.05 2.04 2.03 2.02 2.04 2.06 2.04 1.99 1.94 1.93 1.93 1.90 1.87 1.87 1.91 1.93 1.91 1.88 1.89 1.84 1.79 1.75 1.71 1.61 1.54 1.54 1.64 1.66 1.64 1.54 1.49 1.46 1.28 1.25 1.06 1.13 1.33 1.49 1.78 1.84 1.71 1.86 1.91 1.99 2.02 2.00 1.96 1.83 1.86 1.95 1.90 1.84 1.75 1.72 1.73 1.70 1.66 1.63 1.58 1.55 1.51 1.49 1.51 1.55 1.57 1.58 1.60 1.58 1.57 1.58 1.56 1.58 1.60 1.58 1.56 1.55
2.00 2.01 2.02 1.96 1.92 1.92 1.99 2.05 2.08 2.06 2.08 2.03 2.01 2.00 1.99 1.94 1.94 1.95 1.98 1.97 1.92 1.86 1.88 1.85 1.86 1.85 1.82 1.81 1.87 1.87 1.86 1.79 1.79 1.70 1.60 1.61 1.60 1.66 1.69 1.63 1.52 1.45 1.36 1.28 1.01 1.29 1.53 1.50 1.66 1.83 1.75 1.81 1.89 1.94 1.98 1.97 1.87 1.87 1.99 1.93 1.89 1.78 1.76 1.78 1.77 1.76 1.75 1.73 1.70 1.65 1.58 1.57 1.52 1.45 1.44 1.48 1.47 1.45 1.44 1.42 1.43 1.43 1.46 1.46 1.43
2.03 2.05 2.02 1.98 1.95 1.87 1.94 2.00 2.08 2.17 2.07 2.11 2.08 2.00 1.95 1.95 1.96 1.92 1.94 1.96 1.88 1.84 1.88 1.92 1.89 1.88 1.83 1.80 1.86 1.86 1.87 1.81 1.73 1.70 1.65 1.64 1.65 1.65 1.64 1.61 1.60 1.56 1.48 1.35 1.19 1.14 1.38 1.45 1.62 1.85 1.90 1.81 1.82 1.83 1.87 1.92 1.89 1.90 2.01 1.96 1.90 1.79 1.74 1.75 1.77 1.77 1.77 1.79 1.75 1.75 1.73 1.71 1.64 1.56 1.50 1.42 1.45 1.44 1.40 1.34 1.33 1.32 1.32 1.34 1.36
2.03 2.01 2.01 2.03 1.99 1.92 1.91 1.97 2.04 2.12 2.10 2.09 2.02 1.96 1.95 1.96 1.98 1.96 1.97 1.93 1.89 1.88 1.87 1.84 1.86 1.83 1.82 1.78 1.75 1.77 1.82 1.77 1.74 1.71 1.65 1.61 1.58 1.54 1.53 1.56 1.55 1.53 1.51 1.42 1.31 1.30 1.38 1.56 1.57 1.69 1.88 1.80 1.66 1.90 1.87 1.79 1.76 1.82 1.90 1.90 1.86 1.75 1.73 1.72 1.74 1.72 1.72 1.74 1.74 1.74 1.77 1.79 1.77 1.72 1.69 1.65 1.58 1.56 1.55 1.54 1.52 1.50 1.47 1.46 1.45
2.03 1.99 1.98 2.02 2.01 1.95 1.94 1.99 2.03 2.07 2.11 2.07 2.03 1.95 1.91 1.92 1.92 1.94 1.92 1.91 1.87 1.87 1.87 1.84 1.84 1.83 1.78 1.71 1.70 1.74 1.80 1.77 1.76 1.73 1.67 1.61 1.56 1.49 1.49 1.50 1.52 1.56 1.61 1.49 1.42 1.33 1.28 1.51 1.50 1.74 1.93 2.02 1.66 1.86 1.74 1.69 1.70 1.74 1.72 1.78 1.79 1.77 1.75 1.78 1.76 1.74 1.71 1.75 1.74 1.72 1.77 1.79 1.80 1.83 1.82 1.81 1.75 1.71 1.72 1.70 1.67 1.66 1.66 1.64 1.62
2.08 2.05 2.06 2.09 1.97 1.96 1.99 2.00 1.98 1.97 2.04 2.04 2.05 2.01 1.95 1.92 1.92 1.92 1.92 1.93 1.93 1.91 1.87 1.84 1.81 1.78 1.73 1.74 1.77 1.78 1.79 1.78 1.79 1.76 1.75 1.66 1.58 1.51 1.51 1.55 1.54 1.55 1.56 1.56 1.47 1.38 1.32 1.35 1.54 1.53 1.73 1.98 1.94 1.82 1.79 1.80 1.75 1.74 1.68 1.71 1.77 1.80 1.82 1.86 1.84 1.76 1.74 1.75 1.77 1.79 1.77 1.79 1.81 1.82 1.85 1.82 1.81 1.78 1.77 1.73 1.72 1.71 1.71 1.71 1.68
2.06 2.08 2.08 2.06 2.02 2.00 1.97 1.96 1.98 1.99 1.95 1.96 2.00 1.98 1.92 1.92 1.91 1.91 1.93 1.93 1.92 1.90 1.89 1.88 1.85 1.78 1.75 1.81 1.86 1.83 1.81 1.76 1.78 1.78 1.78 1.74 1.68 1.61 1.52 1.51 1.51 1.51 1.55 1.55 1.52 1.40 1.38 1.29 1.45 1.39 1.50 1.70 1.97 2.12 2.01 1.95 1.74 1.70 1.69 1.75 1.83 1.98 1.99 1.85 1.82 1.75 1.74 1.74 1.76 1.77 1.77 1.77 1.78 1.81 1.83 1.83 1.81 1.79 1.77 1.75 1.73 1.71 1.71 1.72 1.73
2.07 2.11 2.12 2.12 2.05 2.00 1.91 1.99 2.03 2.01 2.00 2.00 1.98 2.01 2.01 2.01 2.03 1.99 1.98 1.96 1.94 1.93 1.92 1.90 1.90 1.89 1.87 1.82 1.87 1.92 1.90 1.80 1.79 1.80 1.80 1.77 1.79 1.77 1.71 1.68 1.63 1.59 1.54 1.54 1.55 1.52 1.41 1.31 1.37 1.48 1.55 1.65 1.84 2.01 2.15 2.00 2.06 1.89 1.76 1.69 1.75 1.77 1.80 1.84 1.79 1.74 1.71 1.72 1.72 1.73 1.74 1.75 1.76 1.77 1.79 1.82 1.83 1.83 1.83 1.82 1.80 1.78 1.76 1.74 1.74
2.08 2.07 2.08 2.12 2.12 2.09 2.06 2.03 2.04 2.04 2.02 2.00 1.99 1.99 2.07 2.10 2.02 1.94 1.92 1.94 1.95 1.95 1.97 1.95 1.94 1.94 1.91 1.87 1.87 1.93 1.90 1.81 1.79 1.81 1.83 1.83 1.84 1.79 1.79 1.77 1.74 1.72 1.71 1.68 1.68 1.64 1.54 1.46 1.43 1.42 1.56 1.51 1.52 1.76 1.95 1.93 1.89 1.91 1.86 1.82 1.96 1.91 1.69 1.66 1.66 1.68 1.71 1.68 1.66 1.67 1.67 1.70 1.74 1.78 1.79 1.79 1.80 1.82 1.83 1.84 1.83 1.82 1.81 1.80 1.79
2.09 2.09 2.10 2.14 2.12 2.06 2.07 2.07 2.03 2.04 1.99 2.00 2.01 2.10 2.11 2.01 1.94 1.86 1.84 1.88 1.93 1.96 1.95 1.94 1.96 1.98 1.95 1.90 1.87 1.92 1.96 1.97 1.91 1.87 1.87 1.88 1.86 1.81 1.79 1.78 1.79 1.78 1.75 1.73 1.71 1.66 1.64 1.58 1.52 1.51 1.51 1.60 1.56 1.52 1.73 1.87 1.84 1.69 1.79 1.82 1.76 1.81 1.74 1.64 1.54 1.63 1.66 1.65 1.67 1.65 1.62 1.62 1.64 1.66 1.68 1.71 1.74 1.77 1.77 1.77 1.77 1.79 1.79 1.79 1.79
2.13 2.11 2.08 2.09 2.09 2.07 2.03 2.03 2.05 2.07 2.03 2.01 2.04 2.04 2.02 2.03 1.97 1.90 1.87 1.85 1.88 1.96 1.96 1.93 1.95 1.96 1.99 1.99 1.96 1.95 1.97 1.98 1.94 1.93 1.92 1.87 1.84 1.76 1.79 1.81 1.83 1.81 1.77 1.75 1.70 1.69 1.67 1.62 1.59 1.58 1.64 1.69 1.63 1.69 1.75 1.72 1.63 1.63 1.71 1.67 1.66 1.68 1.74 1.75 1.66 1.53 1.54 1.54 1.52 1.55 1.58 1.57 1.56 1.56 1.56 1.57 1.59 1.61 1.64 1.67 1.68 1.69 1.71 1.72 1.75
2.17 2.20 2.08 2.10 2.08 2.02 1.98 2.01 2.04 2.09 2.08 2.04 2.04 2.03 2.04 2.04 2.02 1.96 1.94 1.92 1.90 1.89 1.91 1.93 1.94 1.93 1.95 1.97 1.98 1.98 1.97 1.99 2.00 2.00 1.98 1.95 1.85 1.76 1.79 1.82 1.81 1.79 1.76 1.77 1.80 1.78 1.73 1.68 1.58 1.61 1.64 1.64 1.64 1.60 1.62 1.57 1.51 1.56 1.77 1.75 1.67 1.85 2.00 1.88 1.74 1.72 1.65 1.55 1.56 1.54 1.51 1.53 1.48 1.48 1.49 1.48 1.50 1.52 1.52 1.54 1.53 1.52 1.54 1.56 1.59
2.15 2.17 2.16 2.11 2.07 2.02 1.92 1.95 2.07 2.08 2.07 2.10 2.09 2.11 2.09 2.03 2.01 1.99 1.99 1.98 1.93 1.89 1.88 1.87 1.87 1.91 1.95 1.98 2.03 2.06 2.06 2.06 2.06 2.02 1.98 1.98 1.98 1.94 1.87 1.86 1.84 1.81 1.76 1.73 1.74 1.75 1.71 1.61 1.57 1.56 1.54 1.58 1.61 1.67 1.70 1.75 1.81 1.83 1.75 1.74 1.68 1.70 1.72 1.78 1.78 1.80 1.84 1.72 1.58 1.52 1.57 1.63 1.57 1.52 1.53 1.52 1.57 1.57 1.53 1.54 1.53 1.52 1.53 1.55 1.56
2.01 2.07 2.09 1.97 1.97 2.02 2.02 2.03 2.01 2.06 2.07 2.04 2.00 2.00 1.95 1.86 1.80 1.75 1.70 1.73 1.77 1.80 1.86 1.85 1.81 1.90 1.95 1.99 2.00 1.98 1.95 1.93 1.95 1.97 1.94 1.91 1.87 1.85 1.87 1.88 1.88 1.81 1.73 1.71 1.71 1.70 1.63 1.58 1.63 1.62 1.56 1.58 1.65 1.74 1.74 1.80 1.88 1.85 1.84 1.88 1.79 1.73 1.62 1.59 1.51 1.71 1.87 1.83 1.73 1.59 1.57 1.71 1.67 1.53 1.54 1.54 1.61 1.67 1.73 1.73 1.75 1.75 1.72 1.71 1.70
2.07 2.09 2.04 1.96 1.94 1.99 1.97 1.98 1.98 1.96 1.94 1.91 1.90 1.86 1.81 1.77 1.73 1.65 1.57 1.50 1.52 1.56 1.67 1.75 1.76 1.77 1.81 1.84 1.86 1.85 1.85 1.88 1.87 1.87 1.86 1.86 1.86 1.87 1.87 1.87 1.87 1.89 1.89 1.79 1.69 1.64 1.61 1.57 1.55 1.57 1.59 1.60 1.64 1.64 1.65 1.71 1.75 1.80 1.85 1.92 1.88 1.77 1.71 1.59 1.59 1.58 1.85 1.97 1.80 1.69 1.61 1.73 1.73 1.64 1.58 1.65 1.72 1.77 1.81 1.83 1.84 1.84 1.83 1.81 1.81
2.05 1.95 1.92 1.99 1.96 1.96 1.91 1.91 1.88 1.84 1.80 1.80 1.79 1.79 1.77 1.73 1.68 1.60 1.52 1.47 1.43 1.43 1.47 1.53 1.58 1.63 1.71 1.73 1.73 1.82 1.91 1.91 1.92 1.89 1.87 1.84 1.82 1.80 1.79 1.79 1.81 1.83 1.82 1.80 1.81 1.74 1.71 1.64 1.58 1.56 1.58 1.61 1.58 1.65 1.76 1.76 1.84 1.76 1.82 1.80 1.85 1.73 1.71 1.76 1.72 1.72 1.82 1.98 1.88 1.75 1.70 1.79 1.78 1.70 1.68 1.78 1.83 1.84 1.85 1.87 1.88 1.89 1.88 1.84 1.83
1.74 1.72 1.74 1.68 1.67 1.59 1.59 1.52 1.55 1.57 1.56 1.57 1.56 1.55 1.52 1.49 1.48 1.46 1.43 1.39 1.39 1.39 1.41 1.46 1.49 1.49 1.51 1.52 1.60 1.69 1.79 1.84 1.89 1.84 1.77 1.79 1.82 1.81 1.77 1.75 1.73 1.76 1.77 1.78 1.76 1.77 1.76 1.69 1.63 1.55 1.66 1.74 1.66 1.73 1.86 1.89 1.82 1.75 1.76 1.73 1.77 1.80 1.79 1.77 1.88 1.87 1.94 2.03 1.85 1.77 1.66 1.73 1.81 1.75 1.67 1.76 1.89 1.91 1.90 1.89 1.88 1.87 1.85 1.84 1.85
1.38 1.39 1.40 1.34 1.34 1.34 1.34 1.39 1.41 1.41 1.40 1.40 1.38 1.35 1.32 1.30 1.28 1.30 1.30 1.29 1.27 1.27 1.29 1.32 1.36 1.37 1.41 1.45 1.49 1.54 1.67 1.72 1.76 1.81 1.79 1.70 1.67 1.71 1.69 1.63 1.68 1.71 1.66 1.64 1.67 1.70 1.71 1.70 1.65 1.62 1.65 1.72 1.75 1.80 1.88 1.93 1.90 1.87 1.83 1.79 1.80 1.80 1.88 1.98 1.99 2.02 2.02 2.09 1.99 1.84 1.59 1.71 1.78 1.66 1.66 1.75 1.84 1.88 1.93 1.95 1.94 1.91 1.90 1.90 1.91
1.29 1.26 1.25 1.22 1.19 1.19 1.19 1.19 1.19 1.14 1.20 1.20 1.20 1.19 1.17 1.16 1.13 1.11 1.12 1.13 1.14 1.15 1.19 1.26 1.29 1.31 1.33 1.35 1.36 1.43 1.49 1.55 1.61 1.58 1.54 1.52 1.51 1.51 1.49 1.51 1.53 1.59 1.64 1.71 1.75 1.75 1.75 1.75 1.73 1.71 1.74 1.80 1.82 1.81 1.87 1.89 1.93 1.94 1.86 1.90 1.91 1.85 1.78 1.73 1.71 1.83 1.82 1.99 2.04 1.86 1.69 1.66 1.76 1.68 1.67 1.75 1.77 1.75 1.84 1.89 1.96 1.99 1.99 1.98 1.97
1.09 1.06 1.03 1.04 1.07 1.07 1.09 1.10 1.10 1.06 1.07 1.09 1.08 1.05 1.03 1.01 1.01 1.00 0.98 0.97 1.02 1.08 1.12 1.18 1.20 1.19 1.21 1.23 1.26 1.28 1.32 1.38 1.43 1.42 1.41 1.40 1.33 1.28 1.26 1.25 1.27 1.28 1.32 1.51 1.64 1.67 1.71 1.74 1.72 1.70 1.73 1.76 1.80 1.84 1.85 1.90 1.93 1.91 1.77 1.69 1.68 1.76 1.67 1.60 1.59 1.66 1.74 1.91 1.97 1.93 1.74 1.64 1.70 1.69 1.66 1.70 1.72 1.71 1.77 1.84 1.89 1.92 1.93 1.92 1.93
0.96 0.99 1.01 1.00 1.01 0.98 0.98 1.01 1.14 1.07 1.04 1.06 1.04 1.01 0.97 0.96 0.93 0.90 0.90 0.86 0.85 0.92 1.00 1.07 1.08 1.08 1.10 1.12 1.15 1.16 1.20 1.25 1.27 1.24 1.20 1.17 1.07 1.05 1.02 1.01 0.98 1.00 1.12 1.32 1.45 1.57 1.68 1.64 1.60 1.63 1.68 1.71 1.71 1.71 1.75 1.75 1.83 1.87 1.79 1.56 1.63 1.65 1.52 1.50 1.44 1.52 1.68 1.79 1.86 1.93 1.73 1.65 1.73 1.73 1.64 1.68 1.73 1.73 1.72 1.79 1.84 1.87 1.88 1.87 1.86
1.04 1.05 1.01 1.00 0.97 0.96 1.01 1.03 1.08 1.02 1.00 1.02 1.01 0.99 0.96 0.94 0.91 0.86 0.83 0.84 0.82 0.84 0.88 0.89 0.94 0.96 0.99 1.08 1.07 1.07 1.07 1.08 1.08 1.05 1.05 1.04 0.98 0.97 0.97 0.93 0.90 0.92 1.06 1.17 1.23 1.28 1.37 1.41 1.47 1.52 1.55 1.61 1.66 1.71 1.76 1.80 1.82 1.88 1.82 1.72 1.74 1.64 1.49 1.49 1.55 1.57 1.52 1.63 1.87 1.97 1.70 1.65 1.64 1.67 1.68 1.60 1.52 1.62 1.71 1.73 1.76 1.78 1.79 1.79 1.76
Wind_Speed
8 8 7 7 6 6 5 4 4 3 3 2 1 1 2 3 4 5 5 6 6 7 9 9 9 8 9 9 10 10 10 11 10 10 9 9 8 7 6 6 5 5 7 8 9 10 11 11 12 12 12 13 15 16 16 17 17 17 17 17 17 17 16 16 16 15 15 15 16 16 16 15 15 15 15 16 15 15 15 14 14 13 13 13 12
8 8 7 7 6 6 5 4 4 3 3 2 1 2 2 3 4 5 5 5 5 6 8 9 8 8 10 10 10 11 11 11 11 10 9 9 8 6 6 6 5 6 7 7 8 9 10 11 11 12 12 13 14 15 16 17 17 17 17 17 17 17 16 16 16 16 16 15 15 15 16 16 16 16 16 16 16 15 15 15 14 14 14 14 13
9 8 7 7 6 5 4 3 3 3 3 2 1 2 3 4 5 5 5 5 5 6 8 9 8 9 11 10 10 11 10 10 11 10 9 9 8 7 6 6 6 6 7 7 8 9 9 10 11 11 12 13 13 14 15 16 17 17 17 17 17 16 17 17 16 16 16 16 16 15 15 15 15 15 15 15 16 15 15 15 14 14 14 14 14
9 8 7 7 6 5 4 3 3 2 2 2 2 2 2 3 5 5 5 5 6 6 8 8 8 9 10 9 10 11 11 11 11 10 9 9 9 8 7 6 5 5 6 7 7 8 9 10 10 11 12 12 13 14 15 15 16 16 17 17 17 17 17 17 17 17 16 16 16 15 15 15 15 15 15 15 15 15 15 15 14 14 14 14 13
8 8 7 7 6 5 4 3 3 3 2 2 2 2 2 3 5 6 4 5 5 6 7 8 8 9 10 9 10 11 11 11 11 10 9 10 10 8 6 4 3 3 4 5 6 7 8 9 10 10 11 12 13 14 15 15 16 16 16 17 17 17 17 17 17 17 17 16 16 16 15 15 15 14 15 15 15 15 15 14 14 14 14 13 13
8 8 7 7 6 5 5 4 4 3 3 2 3 3 3 3 5 5 4 4 4 5 6 7 7 9 10 9 10 10 11 11 12 10 8 9 10 9 7 5 3 2 2 3 5 6 7 8 8 9 10 11 12 13 14 15 15 16 16 17 17 17 17 17 17 16 16 16 16 16 16 15 15 14 14 14 14 14 14 14 14 13 13 13 13
8 8 8 7 6 5 5 4 4 4 3 3 3 3 3 4 5 5 4 4 3 5 6 6 6 8 9 9 9 10 11 11 12 10 8 9 9 9 8 6 5 3 1 2 3 5 6 6 7 8 9 10 11 12 13 14 14 15 16 17 17 17 17 17 17 16 16 16 16 16 16 16 15 15 14 14 14 14 14 13 13 13 13 13 13
9 9 8 7 6 6 5 5 4 4 4 3 3 3 4 4 4 4 5 4 3 4 5 5 6 7 8 8 8 10 11 11 12 11 10 9 9 9 8 7 6 4 1 1 2 3 4 5 6 7 8 10 11 11 12 13 13 14 15 16 17 17 17 17 17 16 16 16 16 16 16 16 16 15 14 14 13 13 13 13 13 13 13 13 12
10 9 9 8 7 6 5 5 5 5 5 4 4 4 4 4 4 4 4 5 4 4 4 4 5 5 7 7 7 9 10 11 11 11 10 9 9 10 9 8 7 5 3 2 1 2 3 4 5 6 7 8 10 10 11 12 12 13 14 14 15 16 17 17 17 16 16 16 16 16 16 16 16 15 15 14 13 13 13 12 12 12 12 12 12
10 10 9 8 8 7 6 5 5 5 4 4 4 4 4 4 4 4 4 5 5 4 4 4 5 4 6 7 7 9 9 10 10 11 10 10 10 10 10 9 8 6 4 3 2 1 2 2 3 5 6 7 8 9 10 10 11 12 13 13 14 15 15 16 16 16 16 15 15 16 16 16 16 15 15 14 14 13 13 12 12 12 12 12 12
11 10 10 9 8 8 7 6 6 5 5 5 5 4 4 4 4 4 4 5 5 5 5 5 4 4 7 9 8 8 9 9 10 10 10 10 11 10 11 10 9 8 6 4 3 2 1 1 3 4 5 6 6 7 8 9 10 11 12 12 13 13 14 14 15 15 15 15 15 15 15 16 15 15 15 14 14 14 13 13 12 12 12 12 11
11 11 11 10 9 9 8 8 7 6 6 6 5 5 4 4 5 5 5 5 4 4 5 5 4 5 8 8 7 8 9 10 10 10 10 10 11 11 11 11 9 8 7 5 4 3 3 2 3 4 4 4 5 6 7 8 9 9 10 11 11 12 12 13 14 14 15 15 15 15 15 15 15 15 15 15 14 14 13 13 12 12 12 12 11
12 12 11 11 10 9 9 8 8 7 7 6 6 5 5 5 5 5 5 5 4 4 5 5 4 5 7 7 7 7 8 9 10 10 10 10 11 11 12 11 10 8 7 6 5 5 4 4 4 4 4 4 4 4 6 7 7 8 9 10 10 11 12 12 13 13 14 14 15 15 15 15 15 15 15 15 14 14 13 13 13 12 12 12 11
12 12 11 11 11 10 10 9 9 8 7 7 6 6 6 6 6 5 5 5 5 4 4 4 4 4 5 6 6 6 7 8 9 9 9 10 10 11 11 11 10 8 7 7 7 6 5 4 4 4 4 4 4 4 4 5 6 7 8 8 9 10 11 11 12 12 13 14 14 14 14 14 14 15 15 14 14 14 13 13 13 12 12 12 12
12 12 11 11 11 10 10 9 9 9 8 8 7 7 6 6 6 5 5 5 5 4 3 3 4 4 4 5 5 6 6 7 7 8 8 9 10 10 10 11 11 9 8 8 8 7 6 5 5 5 5 4 4 4 4 4 4 5 6 7 8 9 10 10 11 12 12 13 13 13 14 14 14 14 14 14 14 14 14 13 13 12 12 12 12
11 11 11 11 11 11 10 9 9 9 8 8 7 7 7 6 6 6 5 5 5 4 4 3 3 3 4 4 4 5 6 6 6 7 7 8 9 10 10 10 10 10 8 8 8 7 6 6 5 5 5 5 5 4 4 4 3 3 4 5 7 8 9 10 11 11 12 12 12 13 13 13 14 14 14 14 14 14 14 13 13 12 12 12 12
11 11 11 11 11 11 10 10 9 9 8 8 7 7 7 7 7 6 6 5 5 5 4 3 3 3 4 4 4 4 5 5 6 6 6 7 8 9 10 10 10 9 8 8 8 7 7 6 5 5 5 5 5 4 4 3 3 3 3 4 5 6 8 9 10 10 11 11 11 12 12 13 13 13 13 13 13 14 13 13 13 12 12 12 12
12 12 11 11 11 11 10 10 10 9 9 8 8 8 7 7 7 6 6 5 4 4 4 4 3 3 3 3 3 4 4 4 5 5 6 6 6 7 9 9 9 9 9 8 7 8 7 6 6 6 5 5 4 4 4 3 3 3 2 2 3 5 6 8 9 9 10 10 10 10 11 11 12 12 12 12 12 13 13 13 12 12 12 12 12
12 12 12 11 11 11 11 10 10 9 9 9 8 8 8 8 7 6 6 5 4 4 4 4 3 3 3 3 3 3 3 3 4 5 5 5 5 6 7 8 8 8 8 8 7 7 7 7 6 6 6 5 4 4 4 4 4 3 2 2 2 3 5 6 7 8 9 9 9 9 9 10 10 11 11 11 12 12 12 12 12 12 12 12 12
12 12 12 12 11 11 11 10 10 10 9 9 9 9 9 8 7 7 6 6 5 5 5 5 5 4 4 4 3 3 2 2 3 4 5 5 5 6 7 7 8 8 8 7 7 7 7 6 5 5 5 5 4 4 4 4 4 4 3 2 2 2 3 4 6 7 8 8 8 8 8 9 9 10 10 11 11 11 12 12 12 12 12 11 11
12 12 12 12 12 12 12 11 11 11 10 10 10 9 9 8 8 7 7 7 7 6 6 5 5 5 4 4 3 3 2 2 2 3 4 4 5 5 6 6 7 7 7 7 7 6 6 6 4 4 4 4 4 4 4 4 4 4 4 3 3 2 2 3 5 6 7 7 7 8 8 8 8 9 9 10 10 10 11 11 11 11 11 11 11
12 12 12 12 12 12 12 12 12 11 11 11 10 10 9 9 9 9 8 8 7 7 6 6 6 5 5 4 3 3 2 2 2 2 3 4 4 5 5 5 6 6 6 6 6 6 5 5 4 4 4 4 4 4 4 3 4 4 4 4 3 3 3 3 4 5 6 6 7 7 7 8 8 8 8 9 9 9 9 10 10 10 10 10 10
12 12 12 13 13 13 12 12 12 11 11 11 11 11 10 9 9 9 9 9 8 8 7 7 6 6 6 5 4 4 3 3 3 2 2 3 4 4 4 4 5 5 5 5 5 5 5 4 4 4 4 4 4 4 3 3 3 4 4 4 4 4 3 3 4 4 5 6 6 6 7 7 7 7 7 8 8 8 8 8 9 9 9 9 9
12 12 12 13 12 12 12 12 12 12 12 12 11 11 11 10 9 9 9 8 8 8 8 8 7 7 6 6 6 5 4 4 4 4 3 2 3 4 4 4 4 5 4 4 5 5 4 4 4 3 3 3 3 3 3 3 3 4 4 4 4 3 3 3 3 4 4 5 5 6 6 6 6 7 7 7 7 7 7 7 8 8 8 8 8
12 12 12 12 12 12 12 12 12 12 12 11 11 11 11 11 10 10 9 9 8 8 8 8 8 7 7 7 7 6 5 4 5 4 3 2 2 3 3 3 3 4 3 3 4 4 4 3 3 3 2 2 2 2 2 3 3 3 3 3 3 3 3 3 3 3 3 4 4 5 5 5 6 6 6 6 6 7 7 7 7 7 7 7 8
12 12 12 12 12 12 12 12 12 12 12 11 11 12 11 11 11 11 10 10 9 9 9 9 8 8 8 7 7 7 6 5 5 4 3 3 2 3 3 3 3 3 3 3 3 3 3 3 3 2 2 1 1 1 1 2 2 2 3 3 3 2 2 2 2 3 3 3 3 4 5 5 5 5 6 6 6 6 6 7 7 7 7 7 7
12 12 12 12 12 12 12 12 12 12 12 11 11 12 12 11 12 12 11 11 10 10 10 10 9 9 8 8 8 8 7 6 5 5 4 3 3 3 3 3 3 3 3 3 3 3 2 2 2 2 2 1 1 0 0 0 1 1 2 2 2 2 2 2 2 2 2 2 3 3 4 4 5 5 5 5 6 6 6 7 7 7 7 7 7
13 13 13 13 12 12 12 12 12 12 11 11 11 11 11 11 12 12 12 12 11 11 11 10 10 10 9 9 9 8 8 7 6 6 5 4 4 4 3 3 3 3 3 3 3 4 2 2 2 2 2 2 2 1 1 1 1 0 0 1 2 1 1 1 1 1 1 2 2 3 3 4 4 5 5 5 5 6 6 6 7 7 7 7 7
14 14 13 13 13 13 12 12 11 12 11 11 11 11 11 11 11 11 12 11 11 11 11 11 11 10 10 10 9 9 8 8 7 7 6 5 5 5 5 5 3 3 4 4 4 4 3 3 3 3 3 2 2 2 2 2 2 1 1 1 1 1 1 0 0 0 1 1 2 3 3 4 4 4 5 5 5 5 6 6 6 6 7 7 7
16 15 15 14 14 13 13 12 12 11 11 11 11 11 11 11 11 11 11 11 11 11 12 11 11 11 11 10 10 9 9 9 8 8 7 7 6 6 6 6 5 4 4 4 5 4 4 4 4 4 4 3 3 3 3 3 3 3 2 2 2 2 2 2 1 1 1 2 2 3 3 4 4 5 5 5 5 6 6 6 6 6 7 7 7
16 16 16 15 14 14 13 13 13 12 12 12 11 11 11 11 11 11 11 11 11 12 12 12 12 11 11 11 11 10 10 10 9 9 8 8 7 7 7 6 6 5 5 5 5 5 4 5 5 5 5 4 4 4 4 4 4 4 4 3 3 3 3 3 3 3 3 3 3 3 3 4 4 4 5 5 6 6 6 7 7 7 7 8 8
16 16 16 16 15 15 14 13 13 13 12 12 11 11 11 11 11 11 11 11 11 12 12 12 12 12 11 11 11 11 10 10 10 10 9 9 9 8 8 8 8 7 7 6 6 6 6 6 6 6 6 5 5 5 5 5 5 5 5 4 4 4 4 4 4 4 4 4 4 5 4 5 5 5 5 6 6 7 7 7 8 8 8 8 8
16 16 16 16 16 16 15 14 14 13 12 12 12 11 11 11 11 11 11 11 12 12 12 12 12 12 12 12 12 12 11 11 11 11 11 10 10 10 10 9 9 9 8 8 7 8 8 7 7 7 7 6 6 6 6 6 6 6 6 5 5 6 6 6 5 5 5 5 6 6 6 6 6 7 7 7 7 7 8 8 8 8 9 9 9
16 16 17 17 16 16 16 15 14 13 13 12 12 11 11 11 11 11 11 11 11 11 11 12 12 12 12 12 12 12 12 12 12 11 12 12 11 11 11 10 10 10 10 9 9 9 8 8 8 8 8 8 8 8 8 8 7 7 7 7 7 7 7 6 6 6 6 6 6 7 7 8 8 8 8 8 8 8 8 8 9 9 9 9 10
16 16 16 16 16 16 16 15 14 13 13 12 11 11 11 11 10 10 10 11 11 11 11 11 12 12 12 12 12 12 13 13 13 12 12 12 12 12 12 11 11 11 11 10 10 10 10 10 10 10 10 10 11 10 9 9 8 8 8 8 8 8 8 7 7 8 8 8 8 8 8 8 9 9 9 9 9 9 9 10 10 10 10 11 11
15 15 16 16 16 16 16 15 14 13 13 12 12 11 11 10 10 10 10 10 10 11 11 11 11 11 12 12 12 12 13 13 13 13 13 13 12 12 13 13 12 12 12 12 12 12 12 11 11 12 12 12 12 11 10 9 9 9 9 9 9 9 9 9 9 9 9 9 9 9 9 9 10 10 10 10 11 11 11 11 12 12 12 12 12
15 15 15 16 16 16 16 16 15 14 12 12 12 11 10 10 10 10 10 10 10 10 10 11 11 11 11 12 12 12 12 13 13 13 13 13 13 13 13 13 13 13 13 13 13 13 13 13 13 13 13 13 13 12 12 11 10 10 10 11 11 10 10 10 10 10 10 10 11 11 11 11 11 11 11 11 12 12 13 13 13 14 14 14 14
15 15 15 15 16 15 15 15 14 13 12 12 11 11 10 10 10 10 10 10 10 10 10 10 11 11 11 12 12 12 12 13 13 13 14 14 14 13 14 14 14 14 14 14 14 14 14 14 14 14 14 14 14 14 13 13 13 12 12 12 12 12 12 12 13 13 12 13 13 13 12 12 12 12 12 12 13 13 14 14 15 15 16 16 16
14 14 14 14 14 14 14 14 13 12 11 11 11 11 11 10 10 10 10 10 10 10 10 10 11 11 11 12 12 12 12 12 13 14 14 14 14 15 15 15 15 15 15 15 15 15 15 15 15 15 15 15 15 15 15 15 15 15 14 13 13 13 14 14 14 15 15 14 14 14 14 14 13 13 13 14 14 14 14 15 15 16 16 17 17
13 13 12 12 12 12 12 12 11 11 11 10 10 11 11 11 10 10 10 10 10 9 10 10 10 11 11 11 12 12 13 13 13 14 14 14 15 15 15 16 16 16 16 16 16 16 16 16 16 16 15 15 15 16 16 16 16 17 16 16 15 15 15 15 16 16 16 15 15 15 15 15 15 15 15 15 15 15 15 15 15 16 16 16 17
12 12 11 10 10 10 10 10 10 10 10 10 10 10 10 10 10 10 10 10 9 9 9 10 10 10 11 11 12 12 13 13 13 14 14 14 14 15 15 16 16 17 17 17 17 17 17 17 17 17 17 17 17 17 17 17 18 18 18 18 17 17 17 16 16 16 16 16 16 16 16 16 16 16 16 16 17 16 16 16 16 16 16 16 16
10 10 9 9 9 9 9 9 9 9 9 9 9 9 9 9 9 9 9 9 9 9 10 10 11 11 11 11 11 12 13 13 14 14 14 14 15 15 16 16 16 16 17 17 17 17 18 18 18 19 19 19 19 19 19 19 19 19 19 19 19 18 18 18 17 18 18 17 17 17 17 17 17 17 17 17 17 17 18 17 17 17 17 17 17
9 8 7 8 8 8 8 8 8 8 8 9 9 8 8 8 9 9 9 9 9 9 10 10 10 11 11 11 11 12 12 13 13 14 14 14 15 15 16 16 16 17 17 17 18 18 18 18 19 19 19 20 20 20 21 21 21 21 21 21 20 19 19 19 19 20 20 19 17 17 17 17 17 18 18 18 18 19 19 18 18 18 18 18 18
8 7 7 7 7 7 7 8 8 7 7 7 7 7 8 8 8 9 9 9 9 9 9 9 10 10 10 11 11 11 12 12 12 13 13 14 14 15 16 16 17 17 18 18 19 19 19 19 20 20 21 21 21 21 22 22 23 23 22 21 20 19 19 20 20 21 21 20 19 18 18 18 18 19 19 19 19 20 20 20 20 20 20 19 19
7 6 6 7 7 7 7 7 7 7 6 6 6 6 7 7 8 8 9 9 9 9 9 9 10 10 10 11 11 11 12 12 13 13 13 14 14 15 16 16 17 18 18 19 20 20 20 21 21 22 22 22 22 23 23 23 23 23 22 22 22 21 21 22 22 22 22 22 21 20 20 20 20 19 20 20 20 20 21 20 21 21 20 20 20
6 6 6 6 6 6 7 7 7 6 6 6 6 6 6 7 8 9 9 9 9 9 10 10 10 10 10 11 11 12 12 13 13 14 14 15 15 15 16 17 17 18 19 19 20 21 21 22 22 23 24 24 24 25 25 25 24 23 23 23 23 23 23 24 24 24 23 23 23 22 22 22 22 21 21 21 21 21 21 21 21 21 21 20 20
6 6 6 6 6 6 6 6 6 6 6 7 7 7 8 8 9 10 10 10 10 10 10 10 10 10 11 11 11 12 13 13 14 14 15 15 15 16 16 17 17 18 18 19 20 20 21 21 22 23 24 24 25 26 26 26 25 24 24 25 25 25 25 25 25 25 24 24 24 23 23 23 23 23 22 23 23 23 23 22 22 21 21 21 21
6 6 6 6 7 7 7 6 6 7 7 7 8 8 8 9 10 10 10 11 11 11 10 10 10 11 11 12 12 12 13 13 14 14 14 15 15 16 16 17 17 18 18 19 20 20 21 21 22 23 23 24 25 25 26 26 25 24 24 25 25 25 25 25 25 24 24 24 24 24 24 23 24 23 23 23 24 23 23 22 21 21 21 21 21
6 6 7 7 7 7 7 7 7 7 7 8 8 8 9 10 10 10 11 11 12 12 12 11 11 12 12 12 13 13 13 13 13 14 15 15 16 16 17 18 18 18 19 19 20 21 21 22 23 23 24 25 25 25 25 25 25 24 24 24 25 25 25 25 25 25 25 24 24 24 24 23 24 23 22 22 23 23 22 22 21 21 21 20 19
7 7 7 7 7 7 8 7 7 8 8 8 9 9 9 10 10 11 11 12 12 12 12 12 12 13 13 13 13 14 14 14 15 15 16 17 17 18 18 18 19 19 19 20 20 20 21 22 23 23 24 25 25 25 25 24 24 24 24 25 26 26 26 27 26 26 26 25 25 24 24 23 23 23 21 21 21 22 22 21 20 20 19 18 17
7 7 7 7 7 7 8 8 7 8 9 9 10 10 10 10 11 11 11 11 11 11 12 12 12 12 13 13 13 14 14 14 15 16 16 17 17 18 18 19 19 19 20 20 20 21 21 22 22 23 23 24 24 24 24 24 24 24 24 25 26 27 27 27 27 25 24 25 25 25 23 22 22 22 22 21 21 21 21 20 18 18 17 17 16
Wind_Direction
176 178 176 176 180 182 181 184 190 187 185 193 224 338 341 339 345 349 351 350 350 352 353 354 352 353 356 353 350 347 343 342 341 340 336 335 336 331 318 301 280 253 242 237 232 230 229 227 225 224 222 220 217 215 216 218 218 218 217 217 217 217 218 218 218 219 219 220 220 222 223 224 225 226 226 227 229 231 233 236 238 241 244 246 248
182 182 182 182 183 187 190 189 188 189 193 202 254 313 330 336 339 342 348 349 347 351 356 359 357 358 357 351 349 349 347 345 343 342 339 337 337 330 318 305 284 257 244 237 231 228 227 227 226 224 222 220 217 215 215 216 218 218 218 218 217 217 218 219 220 220 220 220 221 222 224 225 227 227 228 229 231 233 235 237 239 241 244 247 248
191 185 186 185 184 186 189 190 190 195 203 222 282 305 316 330 337 341 345 347 345 348 354 356 357 357 355 353 354 354 355 354 350 347 345 342 339 332 320 309 291 264 244 235 231 228 226 227 226 223 222 221 218 215 215 216 217 218 220 220 219 218 219 220 221 221 221 222 222 223 225 226 227 228 229 230 231 233 235 237 239 242 244 247 249
192 187 188 189 188 188 191 196 206 213 219 240 277 300 305 321 336 338 336 342 346 348 355 357 360 1 359 1 2 1 4 3 358 354 351 349 345 335 327 316 297 273 247 234 230 227 226 227 227 224 223 222 221 218 217 217 218 219 220 220 220 219 220 220 221 222 223 223 223 224 224 225 227 228 229 230 232 233 235 237 240 242 243 245 248
189 190 190 191 191 194 200 204 214 227 245 255 277 296 290 307 333 335 324 333 347 351 356 360 4 6 4 5 6 6 7 7 5 359 355 357 355 346 342 337 317 289 251 235 230 226 226 225 225 225 223 223 222 220 219 219 220 219 220 221 221 220 221 222 222 224 224 225 225 225 225 226 227 228 229 231 232 234 236 238 239 241 242 244 246
191 194 192 192 196 201 208 211 219 232 251 265 283 295 294 305 326 332 320 324 345 351 351 357 4 7 7 8 8 8 9 10 7 1 358 4 7 5 6 5 354 337 271 237 228 224 223 221 224 226 223 221 220 218 219 219 220 221 221 221 222 221 221 223 224 225 225 225 225 226 227 227 227 228 229 231 232 233 235 237 238 240 242 244 245
198 198 196 198 203 208 215 222 228 236 250 265 279 289 300 311 324 333 330 330 342 345 348 358 3 4 8 9 9 10 12 11 9 8 9 12 15 15 16 17 14 9 346 226 217 218 220 219 223 226 221 218 217 216 216 217 218 220 222 222 222 222 222 223 225 225 225 225 225 226 227 227 227 227 229 230 232 233 234 236 238 240 241 243 245
204 203 203 203 208 214 221 226 233 242 250 262 275 284 298 308 321 329 332 337 336 336 346 357 358 1 7 7 10 14 14 13 14 17 18 17 19 18 20 24 19 16 40 153 192 209 216 218 219 218 215 213 213 213 215 216 216 218 220 221 221 221 222 224 224 225 226 225 225 226 226 226 227 227 228 230 232 233 235 236 238 240 241 243 244
208 208 207 210 214 220 226 228 238 249 252 261 271 280 294 300 311 322 327 332 332 328 339 354 353 360 11 10 13 17 17 19 20 20 22 24 24 23 25 26 21 25 56 95 130 186 206 215 213 211 209 207 208 211 213 214 214 216 217 219 219 220 222 223 223 224 225 226 226 226 226 226 227 228 229 230 232 234 235 237 238 240 241 242 244
211 212 213 215 220 226 231 233 239 246 252 262 269 276 287 292 302 313 319 325 329 325 332 351 350 4 18 12 15 19 18 23 27 27 30 31 28 26 26 26 27 36 54 72 84 132 183 202 201 203 203 202 204 206 209 210 212 214 215 216 217 218 220 222 222 223 224 226 226 226 225 227 228 228 229 230 231 233 235 237 239 240 241 243 245
214 216 218 219 222 228 233 236 240 245 254 262 269 275 281 292 298 303 314 320 320 320 328 343 348 12 20 10 11 17 15 24 35 35 34 32 28 27 27 29 34 41 54 67 71 91 118 156 171 177 185 192 198 201 204 207 210 212 213 214 214 216 218 219 221 222 224 225 225 226 225 226 228 228 229 230 231 232 234 237 238 239 242 244 245
218 220 222 223 225 229 234 239 243 248 255 260 268 274 277 287 292 297 309 315 317 321 329 339 352 14 15 10 13 17 16 24 34 37 35 31 29 30 30 33 40 45 55 66 69 82 94 111 135 148 158 171 186 194 199 203 206 208 210 212 213 215 216 218 219 220 222 223 223 225 225 226 228 227 228 229 230 231 233 235 237 239 241 244 245
221 222 224 227 229 231 234 238 242 247 253 258 264 269 272 276 284 295 301 305 312 319 327 336 350 5 7 9 15 20 19 21 28 32 33 32 31 32 32 36 44 50 57 66 71 79 88 99 113 127 135 144 163 180 191 198 202 205 208 210 213 215 216 217 218 219 220 220 221 224 225 226 227 227 227 227 229 231 233 235 237 239 241 244 245
222 224 225 228 230 233 235 239 243 247 251 256 260 265 270 274 282 291 296 302 308 313 324 336 345 358 7 9 11 18 20 19 24 29 31 33 34 34 34 39 45 53 62 67 71 74 78 91 106 115 120 127 133 149 172 186 196 203 207 209 211 213 215 217 218 217 218 219 220 222 224 225 226 226 226 227 228 230 232 235 238 240 241 243 245
223 225 227 228 231 234 237 240 244 248 251 254 258 263 269 273 279 283 289 297 304 312 322 329 342 2 11 7 8 16 17 17 23 28 32 34 35 34 36 40 44 54 66 65 66 69 69 80 101 109 108 118 123 127 145 162 182 196 203 207 209 212 214 217 217 216 217 219 221 223 224 224 224 225 226 227 228 230 231 233 236 238 240 242 244
226 227 229 231 233 235 238 240 243 247 250 253 258 263 266 269 273 276 281 289 293 304 313 318 339 358 359 358 7 14 14 18 24 27 31 33 37 38 39 41 46 55 62 61 63 66 67 75 92 104 103 110 117 120 130 140 160 178 192 202 207 211 214 216 216 216 218 220 222 223 224 223 223 224 225 227 228 229 231 233 235 236 238 241 244
228 229 230 231 234 236 239 240 241 245 248 251 257 261 265 267 271 271 272 277 281 290 304 315 331 343 347 355 5 11 16 23 25 24 26 33 41 44 43 44 49 56 58 60 64 65 69 76 84 98 102 104 109 113 117 119 129 147 167 189 203 211 213 214 215 216 218 219 221 223 223 223 223 224 225 226 228 229 231 232 233 235 238 241 243
229 230 231 231 234 236 239 240 241 244 246 251 255 258 262 264 268 269 265 267 273 280 292 300 310 322 335 345 351 1 11 19 21 21 23 29 37 43 45 45 49 54 54 58 64 64 67 72 76 87 95 100 102 103 106 106 113 122 135 168 195 208 211 213 214 214 214 214 217 219 220 221 221 222 224 225 227 228 230 231 232 234 237 239 242
231 232 232 232 234 237 238 240 242 244 246 251 255 257 260 261 263 266 265 264 267 271 277 285 294 302 313 324 330 341 353 7 15 19 23 23 27 36 41 42 45 49 49 53 61 62 65 71 73 79 89 97 94 93 99 100 103 103 96 122 175 200 206 209 209 209 208 209 211 213 214 216 218 220 222 224 225 227 229 230 231 233 235 238 241
234 234 234 234 236 238 240 241 243 245 246 249 253 256 258 260 261 262 261 259 261 265 268 276 284 288 295 303 308 313 319 343 5 14 21 21 24 33 38 37 39 43 45 49 58 60 62 69 73 76 85 91 91 92 94 90 90 82 68 78 107 159 185 195 198 200 202 204 207 209 210 212 215 217 220 222 224 225 228 230 231 232 234 236 238
236 235 236 236 237 239 241 243 243 245 247 248 252 254 256 257 257 258 259 259 261 263 263 267 274 280 285 289 291 296 301 313 338 1 12 13 19 32 41 40 37 39 43 48 56 60 60 67 74 81 87 86 86 94 91 84 84 68 54 66 84 110 147 169 179 186 192 197 202 205 206 209 212 215 218 220 222 225 227 229 229 230 232 234 236
237 237 237 236 236 238 241 244 244 246 247 248 250 252 254 257 257 255 257 260 261 259 258 261 267 275 280 278 276 283 296 304 310 335 354 358 8 25 41 46 41 40 43 48 55 60 61 68 75 81 87 83 81 86 84 79 75 58 53 67 81 98 123 147 162 173 182 189 195 200 203 206 210 214 217 219 221 224 225 226 226 228 230 232 234
238 239 239 238 238 239 240 242 244 245 246 248 249 250 253 256 256 254 256 259 259 257 258 259 262 269 273 269 264 268 276 285 288 299 334 354 3 13 26 39 40 38 41 47 53 57 58 62 69 75 80 82 80 80 77 71 62 52 56 68 78 92 111 132 151 166 176 182 189 195 200 205 208 212 215 217 219 220 221 222 224 226 229 232 234
238 240 242 241 241 241 241 242 242 242 245 247 249 249 251 252 253 255 257 257 256 255 257 258 258 262 266 265 261 260 261 273 282 287 308 341 355 4 15 25 28 28 35 41 41 46 50 52 57 64 70 77 80 84 80 70 61 54 57 63 72 85 100 116 137 156 168 178 185 191 198 202 206 209 211 212 213 214 217 219 222 225 229 233 236
239 240 242 243 243 243 242 241 240 241 244 246 247 248 249 250 251 254 256 254 253 254 256 257 257 258 261 263 263 259 257 270 281 281 295 321 340 355 0 4 11 17 23 26 25 28 35 41 43 45 55 66 73 85 83 70 62 59 58 57 65 78 90 106 125 144 159 171 181 188 195 201 204 206 207 209 210 212 216 219 223 227 231 234 237
239 240 242 243 246 246 243 241 241 242 244 246 246 246 247 248 249 251 253 252 251 254 256 257 257 257 257 260 263 264 261 267 274 273 283 299 309 328 340 349 360 7 3 1 4 8 13 25 26 24 28 37 55 74 84 69 56 57 59 58 63 71 82 99 117 137 153 166 178 187 195 200 204 205 208 212 214 217 220 223 227 230 233 236 238
238 240 241 243 246 246 243 240 240 240 242 244 246 245 245 248 250 251 251 252 252 254 255 255 256 257 257 257 260 264 265 265 266 266 272 283 291 302 325 343 348 346 342 341 335 332 341 1 360 357 3 354 347 3 309 6 33 47 56 52 57 62 71 90 110 132 150 164 177 187 195 201 205 208 213 217 220 224 227 229 232 234 236 239 241
240 241 242 244 246 244 242 241 240 239 240 242 245 246 247 249 251 251 251 252 253 253 253 254 255 256 257 256 256 259 263 263 263 266 270 275 281 289 300 312 322 327 330 332 328 321 312 317 326 325 331 328 310 294 268 273 310 318 14 25 33 45 59 77 101 135 161 175 186 195 201 206 211 215 219 223 226 229 231 234 235 237 240 242 244
244 244 244 244 244 242 242 242 241 240 240 242 245 247 249 251 251 252 251 252 253 253 253 252 252 254 255 254 253 254 258 260 260 262 265 270 274 278 285 291 296 309 318 323 322 315 302 296 306 308 305 305 297 277 260 266 274 262 273 320 333 318 292 264 255 214 206 206 209 213 215 217 220 223 225 228 230 233 235 237 239 241 244 245 246
246 247 245 243 242 241 241 241 242 242 242 243 245 246 249 251 251 252 251 251 252 253 253 252 252 253 253 253 253 252 254 257 259 258 258 263 269 271 275 283 287 289 298 310 313 311 300 289 293 299 294 289 287 271 263 265 259 256 269 287 299 294 276 264 258 248 244 240 234 233 234 233 232 233 234 235 237 238 240 242 244 246 247 249 251
246 245 243 241 240 240 239 241 243 244 244 244 245 247 249 251 251 252 252 252 253 254 255 254 252 252 253 253 254 253 254 257 259 260 259 259 263 267 270 275 282 282 281 292 303 305 298 287 288 292 286 280 276 266 266 266 256 256 268 277 282 284 278 269 259 253 255 256 253 251 251 249 246 247 247 248 247 247 248 250 250 252 253 255 256
244 242 242 240 239 239 239 240 242 243 244 245 246 247 249 251 252 252 252 253 254 255 255 254 252 252 253 254 255 254 255 257 258 261 262 261 261 263 266 270 275 278 276 278 287 294 294 288 285 286 282 277 271 265 268 269 261 260 269 273 273 278 281 275 265 259 258 259 261 260 259 257 256 258 259 259 257 255 256 257 256 257 258 258 260
243 242 242 240 238 239 239 241 244 244 245 245 246 247 248 250 251 253 254 254 253 253 253 253 253 253 253 254 256 255 255 256 258 260 261 262 263 263 263 265 268 272 273 272 276 284 288 285 283 283 279 272 268 263 264 267 264 263 269 270 269 275 279 274 268 266 263 262 264 262 261 262 262 262 263 263 262 261 261 262 262 261 261 261 262
242 242 242 240 237 237 239 243 244 245 245 245 244 245 247 248 251 253 255 254 252 252 252 253 253 253 254 256 257 257 256 256 257 259 261 262 264 266 266 266 267 270 272 271 272 277 280 280 280 282 277 271 269 264 261 265 265 264 267 269 270 273 274 271 272 271 265 264 267 265 263 264 265 265 264 264 264 264 264 265 266 266 266 266 265
242 241 240 239 236 236 239 240 240 241 242 242 243 244 245 248 252 255 256 255 254 253 254 254 253 254 255 255 256 257 256 256 256 259 262 263 265 268 270 269 269 271 272 273 274 276 278 279 278 280 279 274 270 265 262 264 264 264 269 271 272 273 271 270 273 271 267 266 268 267 265 264 265 265 264 264 265 265 266 267 267 267 267 268 267
242 240 239 238 236 235 236 235 235 237 238 239 243 244 244 248 253 255 255 255 254 254 255 255 254 255 256 255 256 257 256 256 257 259 262 265 266 269 271 271 272 274 274 276 277 276 277 278 277 279 279 276 274 272 270 268 266 268 272 273 275 274 271 270 272 272 270 269 269 269 267 266 266 267 267 266 266 267 268 268 268 267 267 268 268
241 239 237 235 233 231 230 230 232 234 236 239 241 241 243 247 251 253 255 256 255 254 255 256 256 257 258 256 257 259 259 258 259 261 263 264 266 267 270 272 274 275 276 277 278 276 275 276 277 280 279 277 278 280 277 273 273 275 276 275 275 273 270 272 274 274 273 272 272 271 268 267 268 269 269 269 268 269 269 269 269 268 268 268 269
240 238 235 232 228 226 226 227 229 232 236 238 238 239 243 248 250 253 255 256 255 255 257 258 258 259 259 258 259 260 261 261 261 262 264 265 266 267 269 271 272 274 276 277 278 278 277 277 278 280 280 279 280 279 275 272 273 276 277 275 274 272 271 272 273 273 273 273 273 270 268 269 269 270 270 270 269 270 271 271 270 269 269 269 269
239 234 228 225 224 222 222 224 227 230 234 236 237 240 245 248 250 252 254 255 255 257 259 260 261 260 260 260 260 260 261 262 262 264 265 266 268 269 270 271 272 274 275 276 277 278 278 278 278 279 279 278 278 278 275 273 273 274 274 273 271 271 271 271 271 272 273 274 272 270 268 268 269 270 270 270 270 271 273 273 272 270 269 269 270
234 228 221 219 221 222 222 223 227 230 233 237 240 242 244 247 249 252 254 255 256 258 260 262 262 261 261 262 262 261 261 262 263 265 266 267 269 270 270 271 272 273 275 276 276 277 277 277 278 279 279 277 277 277 276 275 274 273 272 271 270 270 270 270 272 274 274 273 272 270 268 268 269 270 270 271 271 272 273 274 274 273 271 270 270
228 223 216 213 216 220 223 225 228 231 235 238 241 241 242 245 248 251 253 254 256 258 261 262 263 264 264 265 264 263 262 263 265 266 267 269 271 271 272 273 273 273 274 275 276 276 276 277 278 278 278 277 277 276 274 274 274 273 272 269 268 270 271 271 273 274 274 273 272 270 268 267 268 269 270 271 271 271 273 274 275 274 273 271 271
225 221 213 211 215 220 223 227 230 233 236 239 240 241 243 245 248 251 254 256 258 260 262 263 264 264 265 265 266 265 264 265 267 268 269 270 272 273 273 273 274 273 274 275 275 276 277 278 278 278 278 276 275 275 274 274 275 275 274 270 267 268 270 270 271 272 272 273 272 270 268 267 267 269 270 270 270 271 273 274 275 274 273 272 271
222 220 215 215 218 220 224 228 230 232 236 239 242 244 245 249 251 253 257 259 260 262 263 263 265 266 266 267 268 268 268 268 268 268 270 272 273 274 274 274 273 274 274 275 275 276 277 278 279 278 278 277 275 275 275 275 275 274 274 272 269 268 267 267 270 270 269 268 269 270 270 268 268 269 270 271 271 272 272 272 273 273 272 271 271
214 216 217 216 216 217 222 226 226 228 235 241 245 246 248 252 255 255 257 259 262 264 264 264 266 267 268 270 271 271 271 271 271 271 273 275 276 276 276 276 275 274 274 275 275 276 277 277 278 278 278 278 277 276 276 275 275 274 274 274 273 272 269 267 268 269 267 266 267 269 270 270 271 271 271 271 272 272 272 272 272 273 272 270 270
207 210 211 211 213 216 219 221 222 225 234 241 246 248 249 253 257 257 257 260 263 265 266 267 268 268 269 271 273 273 273 274 275 275 276 277 278 278 278 278 277 276 276 275 275 276 276 277 277 277 277 278 278 278 277 276 275 275 275 275 276 274 270 267 268 269 268 266 265 266 268 269 272 272 272 273 273 273 273 273 272 272 271 269 269
204 208 211 214 220 223 223 224 225 229 238 243 246 249 251 255 259 259 260 262 264 265 266 268 270 271 272 273 274 274 276 277 277 277 277 277 279 280 281 280 280 279 279 278 277 276 276 276 276 277 277 278 278 278 278 277 276 277 276 275 274 272 269 269 270 270 269 266 264 265 266 267 269 271 272 273 274 274 274 274 273 272 270 269 268
208 214 220 226 232 233 230 230 233 238 246 251 253 256 259 263 266 265 264 265 265 265 267 269 272 274 274 275 276 276 278 278 278 277 278 280 281 283 283 283 282 282 282 281 281 280 279 278 278 278 278 279 279 279 279 278 278 279 278 276 274 272 270 270 270 270 269 266 263 265 267 267 268 270 271 272 273 273 274 274 273 271 270 269 269
222 225 231 236 239 239 238 239 243 245 250 255 259 263 266 269 271 269 269 268 267 266 268 270 273 275 276 277 277 278 280 281 281 282 283 283 284 284 284 285 285 285 285 285 284 282 282 281 281 281 281 281 281 281 281 280 280 280 279 277 274 272 270 270 269 269 269 266 264 266 269 268 268 269 271 272 273 273 273 274 272 271 270 270 270
231 233 235 237 240 243 242 243 248 249 252 257 262 266 271 274 273 271 271 270 269 268 269 271 273 275 277 278 279 280 281 282 283 286 287 286 285 285 286 287 287 287 287 287 285 283 282 282 282 282 283 283 283 283 283 282 282 281 279 276 274 274 273 273 273 272 271 269 267 267 268 268 268 269 270 271 272 272 272 273 273 272 270 269 269
231 233 235 237 242 245 242 244 250 251 253 259 264 268 274 276 276 274 272 271 271 270 269 270 272 274 277 280 282 282 282 283 285 288 289 288 287 287 288 288 288 288 288 288 287 286 285 284 284 283 283 283 283 284 284 282 281 280 278 277 276 276 276 277 276 275 274 272 268 267 267 267 266 266 267 269 272 273 273 273 271 270 268 267 266
234 236 237 241 247 249 248 250 253 251 254 260 266 270 275 279 280 278 274 272 272 271 270 271 274 276 278 282 285 286 286 287 288 290 291 290 288 287 288 288 287 288 289 290 290 289 289 288 287 286 285 285 285 285 284 282 281 281 281 280 278 277 276 276 276 275 276 275 269 265 266 266 264 263 265 268 272 274 273 271 269 268 266 265 263